This is the latest recevied weather packets stored in our database for station/object KB3VSP. If no packets are shown the sender has not sent any weather packets the latest 10 day(s).
| Time | Temp. | Humidity | Pressure | Rain* | Wind** | Luminosity | Snow |
|---|---|---|---|---|---|---|---|
| 1777901268 | 13.89° C | 58% | 1011.3 hPa | 0 mm | - | 38 W/m² | - |
| 1777900965 | 13.89° C | 58% | 1011.4 hPa | 0 mm | - | 32 W/m² | - |
| 1777900663 | 13.89° C | 59% | 1011.2 hPa | 0 mm | - | 31 W/m² | - |
| 1777900360 | 13.33° C | 60% | 1011.3 hPa | 0 mm | - | 37 W/m² | - |
| 1777900057 | 13.33° C | 59% | 1011.3 hPa | 0 mm | - | 29 W/m² | - |
| 1777899753 | 13.33° C | 59% | 1011.4 hPa | 0 mm | - | 28 W/m² | - |
| 1777899450 | 12.78° C | 60% | 1011.4 hPa | 0 mm | - | 29 W/m² | - |
| 1777899148 | 12.78° C | 60% | 1011.4 hPa | 0 mm | - | 57 W/m² | - |
| 1777898845 | 12.78° C | 61% | 1011.3 hPa | 0 mm | - | 27 W/m² | - |
| 1777898543 | 12.22° C | 61% | 1011.3 hPa | 0 mm | - | 26 W/m² | - |
| 1777898240 | 12.22° C | 62% | 1011.3 hPa | 0 mm | - | 25 W/m² | - |
| 1777897937 | 12.22° C | 62% | 1011.2 hPa | 0 mm | - | 24 W/m² | - |
| 1777897633 | 11.67° C | 62% | 1011.1 hPa | 0 mm | - | 24 W/m² | - |
| 1777897329 | 11.67° C | 62% | 1011.1 hPa | 0 mm | - | 23 W/m² | - |
| 1777897025 | 11.67° C | 63% | 1011.1 hPa | 0 mm | - | 22 W/m² | - |
| 1777896722 | 11.67° C | 63% | 1011.3 hPa | 0 mm | - | 23 W/m² | - |
| 1777896419 | 11.11° C | 63% | 1011.3 hPa | 0 mm | - | 22 W/m² | - |
| 1777896117 | 11.11° C | 64% | 1011.1 hPa | 0 mm | - | 22 W/m² | - |
| 1777895814 | 11.11° C | 64% | 1011.1 hPa | 0 mm | - | 22 W/m² | - |
| 1777895511 | 10.56° C | 64% | 1011.3 hPa | 0 mm | - | 20 W/m² | - |
| 1777895209 | 10.56° C | 64% | 1010.9 hPa | 0 mm | - | 19 W/m² | - |
| 1777894907 | 10.56° C | 64% | 1010.9 hPa | 0 mm | - | 19 W/m² | - |
| 1777894604 | 10.56° C | 64% | 1011.1 hPa | 0 mm | - | 18 W/m² | - |
| 1777894301 | 10.56° C | 64% | 1011.3 hPa | 0 mm | - | 16 W/m² | - |
| 1777893998 | 10° C | 65% | 1011.2 hPa | 0 mm | - | 19 W/m² | - |
* Rain latest hour (hover to see other rain measurements)
** Current wind speed in m/s (hover to see current wind gust speed)